Time,TemperatureF,DewpointF,PressureIn,WindDirection,WindDirectionDegrees,WindSpeedMPH,WindSpeedGustMPH,Humidity,HourlyPrecipIn,Conditions,Clouds,dailyrainin,SoftwareType,DateUTC
2013-01-16 00:03:00,25.0,15.3,28.72,NW,315,2.0,2.0,66,0.00,,,0.00,meteohub,2013-01-16 06:03:00,
2013-01-16 00:08:00,25.2,15.4,28.72,NW,315,1.0,2.0,66,0.00,,,0.00,meteohub,2013-01-16 06:08:00,
2013-01-16 00:13:00,25.2,15.4,28.72,North,0,2.0,2.0,66,0.00,,,0.00,meteohub,2013-01-16 06:13:00,
2013-01-16 00:18:00,25.5,15.4,28.72,NW,315,1.0,2.0,65,0.00,,,0.00,meteohub,2013-01-16 06:18:00,
2013-01-16 00:23:00,25.3,15.3,28.72,North,0,2.0,2.0,65,0.00,,,0.00,meteohub,2013-01-16 06:23:00,
2013-01-16 00:28:00,25.7,15.6,28.72,NW,315,0.0,2.0,65,0.00,,,0.00,meteohub,2013-01-16 06:28:00,
2013-01-16 00:33:00,25.7,15.3,28.72,North,0,0.0,2.0,64,0.00,,,0.00,meteohub,2013-01-16 06:33:00,
2013-01-16 00:38:00,25.5,15.1,28.72,NW,315,0.0,2.0,64,0.00,,,0.00,meteohub,2013-01-16 06:38:00,
2013-01-16 00:43:00,25.7,15.3,28.72,NW,315,0.0,1.0,64,0.00,,,0.00,meteohub,2013-01-16 06:43:00,
2013-01-16 00:48:00,25.7,14.9,28.72,NW,315,2.0,0.0,63,0.00,,,0.00,meteohub,2013-01-16 06:48:00,
2013-01-16 00:53:00,26.1,14.9,28.72,NW,315,2.0,2.0,62,0.00,,,0.00,meteohub,2013-01-16 06:53:00,
2013-01-16 00:58:00,26.1,14.9,28.72,North,0,1.0,2.0,62,0.00,,,0.00,meteohub,2013-01-16 06:58:00,
2013-01-16 01:03:00,26.1,14.9,28.72,NW,315,0.0,2.0,62,0.00,,,0.00,meteohub,2013-01-16 07:03:00,
2013-01-16 01:08:00,25.9,14.7,28.72,NW,315,0.0,2.0,62,0.00,,,0.00,meteohub,2013-01-16 07:08:00,
2013-01-16 01:13:00,25.5,14.7,28.72,NW,315,0.0,2.0,63,0.00,,,0.00,meteohub,2013-01-16 07:13:00,
2013-01-16 01:18:00,25.3,14.5,28.72,NW,315,0.0,2.0,63,0.00,,,0.00,meteohub,2013-01-16 07:18:00,
2013-01-16 01:23:00,25.2,14.7,28.72,NW,315,0.0,0.0,64,0.00,,,0.00,meteohub,2013-01-16 07:23:00,
2013-01-16 01:28:00,25.2,14.7,28.72,NW,315,0.0,0.0,64,0.00,,,0.00,meteohub,2013-01-16 07:28:00,
2013-01-16 01:34:00,24.3,14.5,28.72,West,270,0.0,0.0,66,0.00,,,0.00,meteohub,2013-01-16 07:34:00,
2013-01-16 01:39:00,23.0,15.1,28.72,West,270,0.0,0.0,71,0.00,,,0.00,meteohub,2013-01-16 07:39:00,
2013-01-16 01:43:00,21.9,15.4,28.71,West,270,0.0,0.0,76,0.00,,,0.00,meteohub,2013-01-16 07:43:00,
2013-01-16 01:49:00,21.4,15.8,28.71,West,270,2.0,0.0,79,0.00,,,0.00,meteohub,2013-01-16 07:49:00,
2013-01-16 01:54:00,21.0,15.8,28.72,West,270,2.0,2.0,80,0.00,,,0.00,meteohub,2013-01-16 07:54:00,
2013-01-16 01:59:00,20.8,16.0,28.71,West,270,2.0,2.0,81,0.00,,,0.00,meteohub,2013-01-16 07:59:00,
2013-01-16 02:04:00,20.3,16.0,28.72,West,270,2.0,2.0,83,0.00,,,0.00,meteohub,2013-01-16 08:04:00,
2013-01-16 02:09:00,19.9,16.0,28.72,West,270,4.0,4.0,84,0.00,,,0.00,meteohub,2013-01-16 08:09:00,
2013-01-16 02:14:00,19.9,16.0,28.71,West,270,3.0,3.0,84,0.00,,,0.00,meteohub,2013-01-16 08:14:00,
2013-01-16 02:19:00,19.8,15.8,28.72,WNW,293,1.0,4.0,84,0.00,,,0.00,meteohub,2013-01-16 08:19:00,
2013-01-16 02:24:00,19.6,15.6,28.72,NW,315,0.0,4.0,84,0.00,,,0.00,meteohub,2013-01-16 08:24:00,
2013-01-16 02:29:00,19.8,15.4,28.71,SW,225,0.0,4.0,83,0.00,,,0.00,meteohub,2013-01-16 08:29:00,
2013-01-16 02:34:00,19.6,15.3,28.71,SW,225,0.0,4.0,83,0.00,,,0.00,meteohub,2013-01-16 08:34:00,
2013-01-16 02:39:00,19.6,15.3,28.71,NW,315,0.0,4.0,83,0.00,,,0.00,meteohub,2013-01-16 08:39:00,
2013-01-16 02:44:00,19.8,15.4,28.71,West,270,0.0,0.0,83,0.00,,,0.00,meteohub,2013-01-16 08:44:00,
2013-01-16 02:49:00,19.9,15.6,28.71,West,270,0.0,0.0,83,0.00,,,0.00,meteohub,2013-01-16 08:49:00,
2013-01-16 02:54:00,19.9,15.6,28.71,West,270,0.0,0.0,83,0.00,,,0.00,meteohub,2013-01-16 08:54:00,
2013-01-16 02:59:00,19.6,15.3,28.71,West,270,0.0,0.0,83,0.00,,,0.00,meteohub,2013-01-16 08:59:00,
2013-01-16 03:04:00,19.8,15.4,28.71,West,270,0.0,0.0,83,0.00,,,0.00,meteohub,2013-01-16 09:04:00,
2013-01-16 03:09:00,19.9,15.6,28.71,West,270,0.0,0.0,83,0.00,,,0.00,meteohub,2013-01-16 09:09:00,
2013-01-16 03:14:00,20.1,15.8,28.71,West,270,0.0,0.0,83,0.00,,,0.00,meteohub,2013-01-16 09:14:00,
2013-01-16 03:19:00,20.3,16.0,28.71,SW,225,0.0,0.0,83,0.00,,,0.00,meteohub,2013-01-16 09:19:00,
2013-01-16 03:24:00,20.1,15.8,28.71,SW,225,2.0,0.0,83,0.00,,,0.00,meteohub,2013-01-16 09:24:00,
2013-01-16 03:29:00,20.1,15.8,28.71,SW,225,2.0,3.0,83,0.00,,,0.00,meteohub,2013-01-16 09:29:00,
2013-01-16 03:34:00,19.9,15.6,28.71,SW,225,3.0,3.0,83,0.00,,,0.00,meteohub,2013-01-16 09:34:00,
2013-01-16 03:39:00,20.1,15.8,28.71,SW,225,2.0,3.0,83,0.00,,,0.00,meteohub,2013-01-16 09:39:00,
2013-01-16 03:44:00,20.3,16.0,28.71,SW,225,3.0,3.0,83,0.00,,,0.00,meteohub,2013-01-16 09:44:00,
2013-01-16 03:49:00,20.1,15.4,28.71,South,180,2.0,3.0,82,0.00,,,0.00,meteohub,2013-01-16 09:49:00,
2013-01-16 03:54:00,19.9,15.6,28.71,South,180,2.0,4.0,83,0.00,,,0.00,meteohub,2013-01-16 09:54:00,
2013-01-16 03:59:00,19.6,15.3,28.71,SW,225,2.0,4.0,83,0.00,,,0.00,meteohub,2013-01-16 09:59:00,
2013-01-16 04:04:00,19.4,15.1,28.71,SW,225,2.0,4.0,83,0.00,,,0.00,meteohub,2013-01-16 10:04:00,
2013-01-16 04:09:00,19.2,14.9,28.71,South,180,2.0,3.0,83,0.00,,,0.00,meteohub,2013-01-16 10:09:00,
2013-01-16 04:14:00,19.0,15.3,28.71,South,180,3.0,3.0,85,0.00,,,0.00,meteohub,2013-01-16 10:14:00,
2013-01-16 04:19:00,19.4,16.2,28.71,SW,225,2.0,3.0,87,0.00,,,0.00,meteohub,2013-01-16 10:19:00,
2013-01-16 04:24:00,19.4,16.2,28.71,SW,225,2.0,3.0,87,0.00,,,0.00,meteohub,2013-01-16 10:24:00,
2013-01-16 04:29:00,19.6,16.3,28.71,SW,225,3.0,3.0,87,0.00,,,0.00,meteohub,2013-01-16 10:29:00,
2013-01-16 04:34:00,19.2,16.0,28.71,SW,225,4.0,4.0,87,0.00,,,0.00,meteohub,2013-01-16 10:34:00,
2013-01-16 04:39:00,19.4,16.5,28.71,NW,315,6.0,6.0,88,0.00,,,0.00,meteohub,2013-01-16 10:39:00,
2013-01-16 04:44:00,19.8,16.7,28.70,SW,225,4.0,4.0,88,0.00,,,0.00,meteohub,2013-01-16 10:44:00,
2013-01-16 04:49:00,19.8,16.7,28.70,SW,225,4.0,6.0,88,0.00,,,0.00,meteohub,2013-01-16 10:49:00,
2013-01-16 04:55:00,19.8,17.1,28.69,SW,225,4.0,6.0,89,0.00,,,0.00,meteohub,2013-01-16 10:55:00,
2013-01-16 05:00:00,19.9,16.9,28.70,SW,225,4.0,4.0,88,0.00,,,0.00,meteohub,2013-01-16 11:00:00,
2013-01-16 05:05:00,19.6,16.5,28.70,SW,225,4.0,5.0,88,0.00,,,0.00,meteohub,2013-01-16 11:05:00,
2013-01-16 05:10:00,19.4,16.5,28.69,West,270,2.0,5.0,88,0.00,,,0.00,meteohub,2013-01-16 11:10:00,
2013-01-16 05:15:00,19.2,16.3,28.69,West,270,4.0,5.0,88,0.00,,,0.00,meteohub,2013-01-16 11:15:00,
2013-01-16 05:20:00,20.1,17.6,28.69,SW,225,7.0,7.0,90,0.00,,,0.00,meteohub,2013-01-16 11:20:00,
2013-01-16 05:25:00,20.5,17.8,28.69,SW,225,5.0,7.0,89,0.00,,,0.00,meteohub,2013-01-16 11:25:00,
2013-01-16 05:30:00,20.5,17.8,28.69,SW,225,5.0,7.0,89,0.00,,,0.00,meteohub,2013-01-16 11:30:00,
2013-01-16 05:35:00,20.5,17.8,28.69,WSW,248,6.0,7.0,89,0.00,,,0.00,meteohub,2013-01-16 11:35:00,
2013-01-16 05:40:00,20.3,17.6,28.69,West,270,7.0,7.0,89,0.00,,,0.00,meteohub,2013-01-16 11:40:00,
2013-01-16 05:45:00,20.3,17.6,28.69,West,270,4.0,6.0,89,0.00,,,0.00,meteohub,2013-01-16 11:45:00,
2013-01-16 05:50:00,20.1,17.1,28.69,West,270,6.0,8.0,88,0.00,,,0.00,meteohub,2013-01-16 11:50:00,
2013-01-16 05:55:00,19.9,17.2,28.69,SW,225,6.0,8.0,89,0.00,,,0.00,meteohub,2013-01-16 11:55:00,
2013-01-16 06:00:00,19.6,16.9,28.69,SW,225,4.0,7.0,89,0.00,,,0.00,meteohub,2013-01-16 12:00:00,
2013-01-16 06:05:00,19.9,17.2,28.69,West,270,5.0,6.0,89,0.00,,,0.00,meteohub,2013-01-16 12:05:00,
2013-01-16 06:10:00,19.8,17.1,28.69,West,270,5.0,6.0,89,0.00,,,0.00,meteohub,2013-01-16 12:10:00,
2013-01-16 06:15:00,19.9,17.2,28.69,SW,225,7.0,7.0,89,0.00,,,0.00,meteohub,2013-01-16 12:15:00,
2013-01-16 06:20:00,19.9,17.2,28.69,SW,225,4.0,7.0,89,0.00,,,0.00,meteohub,2013-01-16 12:20:00,
2013-01-16 06:25:00,19.6,16.9,28.69,West,270,4.0,7.0,89,0.00,,,0.00,meteohub,2013-01-16 12:25:00,
2013-01-16 06:30:00,19.2,16.5,28.70,WNW,293,4.0,7.0,89,0.00,,,0.00,meteohub,2013-01-16 12:30:00,
2013-01-16 06:35:00,19.2,16.5,28.70,WNW,293,4.0,6.0,89,0.00,,,0.00,meteohub,2013-01-16 12:35:00,
2013-01-16 06:40:00,19.2,16.5,28.69,West,270,3.0,5.0,89,0.00,,,0.00,meteohub,2013-01-16 12:40:00,
2013-01-16 06:45:00,19.0,16.3,28.69,South,180,2.0,5.0,89,0.00,,,0.00,meteohub,2013-01-16 12:45:00,
2013-01-16 06:50:00,18.5,15.8,28.69,South,180,2.0,5.0,89,0.00,,,0.00,meteohub,2013-01-16 12:50:00,
2013-01-16 06:55:00,18.5,15.8,28.69,South,180,2.0,3.0,89,0.00,,,0.00,meteohub,2013-01-16 12:55:00,
2013-01-16 07:00:00,18.5,15.8,28.69,SW,225,2.0,3.0,89,0.00,,,0.00,meteohub,2013-01-16 13:00:00,
2013-01-16 07:05:00,18.5,16.0,28.69,WSW,248,2.0,2.0,90,0.00,,,0.00,meteohub,2013-01-16 13:05:00,
2013-01-16 07:10:00,18.9,16.3,28.69,SW,225,3.0,3.0,90,0.00,,,0.00,meteohub,2013-01-16 13:10:00,
2013-01-16 07:15:00,19.2,17.1,28.69,SW,225,3.0,4.0,91,0.00,,,0.00,meteohub,2013-01-16 13:15:00,
2013-01-16 07:20:00,19.4,16.9,28.69,SW,225,4.0,4.0,90,0.00,,,0.00,meteohub,2013-01-16 13:20:00,
2013-01-16 07:25:00,19.2,16.7,28.69,South,180,2.0,4.0,90,0.00,,,0.00,meteohub,2013-01-16 13:25:00,
2013-01-16 07:30:00,19.2,16.7,28.69,South,180,3.0,4.0,90,0.00,,,0.00,meteohub,2013-01-16 13:30:00,
2013-01-16 07:35:00,19.2,17.1,28.69,South,180,3.0,4.0,91,0.00,,,0.00,meteohub,2013-01-16 13:35:00,
2013-01-16 07:40:00,19.4,17.2,28.69,South,180,3.0,4.0,91,0.00,,,0.00,meteohub,2013-01-16 13:40:00,
2013-01-16 07:46:00,19.6,17.4,28.69,South,180,2.0,4.0,91,0.00,,,0.00,meteohub,2013-01-16 13:46:00,
2013-01-16 07:51:00,19.6,17.4,28.70,SW,225,4.0,4.0,91,0.00,,,0.00,meteohub,2013-01-16 13:51:00,
2013-01-16 07:56:00,19.4,17.2,28.71,SW,225,2.0,4.0,91,0.00,,,0.00,meteohub,2013-01-16 13:56:00,
2013-01-16 08:01:00,19.2,16.7,28.71,SW,225,2.0,4.0,90,0.00,,,0.00,meteohub,2013-01-16 14:01:00,
2013-01-16 08:06:00,19.2,16.7,28.71,SW,225,4.0,4.0,90,0.00,,,0.00,meteohub,2013-01-16 14:06:00,
2013-01-16 08:11:00,19.4,16.7,28.71,SW,225,4.0,4.0,89,0.00,,,0.00,meteohub,2013-01-16 14:11:00,
2013-01-16 08:16:00,19.9,17.4,28.71,SW,225,5.0,5.0,90,0.00,,,0.00,meteohub,2013-01-16 14:16:00,
2013-01-16 08:21:00,20.7,18.1,28.71,West,270,4.0,6.0,90,0.00,,,0.00,meteohub,2013-01-16 14:21:00,
2013-01-16 08:26:00,21.0,18.3,28.71,SW,225,4.0,6.0,89,0.00,,,0.00,meteohub,2013-01-16 14:26:00,
2013-01-16 08:31:00,21.4,18.3,28.71,West,270,3.0,6.0,88,0.00,,,0.00,meteohub,2013-01-16 14:31:00,
2013-01-16 08:36:00,21.7,18.7,28.71,WSW,248,4.0,6.0,88,0.00,,,0.00,meteohub,2013-01-16 14:36:00,
2013-01-16 08:41:00,21.9,18.7,28.71,SW,225,6.0,6.0,87,0.00,,,0.00,meteohub,2013-01-16 14:41:00,
2013-01-16 08:46:00,21.9,18.7,28.71,SW,225,4.0,8.0,87,0.00,,,0.00,meteohub,2013-01-16 14:46:00,
2013-01-16 08:51:00,21.9,18.7,28.71,SW,225,4.0,8.0,87,0.00,,,0.00,meteohub,2013-01-16 14:51:00,
2013-01-16 08:56:00,21.9,18.7,28.71,SW,225,5.0,8.0,87,0.00,,,0.00,meteohub,2013-01-16 14:56:00,
2013-01-16 09:01:00,22.5,19.2,28.71,SW,225,6.0,8.0,87,0.00,,,0.00,meteohub,2013-01-16 15:01:00,
2013-01-16 09:06:00,22.8,19.6,28.71,West,270,8.0,8.0,87,0.00,,,0.00,meteohub,2013-01-16 15:06:00,
2013-01-16 09:11:00,23.2,19.9,28.71,West,270,7.0,9.0,87,0.00,,,0.00,meteohub,2013-01-16 15:11:00,
2013-01-16 09:16:00,24.3,21.0,28.71,West,270,8.0,9.0,87,0.00,,,0.00,meteohub,2013-01-16 15:16:00,
2013-01-16 09:21:00,24.8,21.0,28.71,West,270,8.0,8.0,85,0.00,,,0.00,meteohub,2013-01-16 15:21:00,
2013-01-16 09:26:00,25.7,21.7,28.71,West,270,9.0,10.0,85,0.00,,,0.00,meteohub,2013-01-16 15:26:00,
2013-01-16 09:31:00,26.8,22.6,28.71,West,270,8.0,10.0,84,0.00,,,0.00,meteohub,2013-01-16 15:31:00,
2013-01-16 09:36:00,27.3,22.8,28.71,West,270,7.0,10.0,83,0.00,,,0.00,meteohub,2013-01-16 15:36:00,
2013-01-16 09:41:00,28.8,23.7,28.71,SW,225,7.0,9.0,81,0.00,,,0.00,meteohub,2013-01-16 15:41:00,
2013-01-16 09:46:00,29.7,23.7,28.71,SW,225,9.0,9.0,78,0.00,,,0.00,meteohub,2013-01-16 15:46:00,
2013-01-16 09:51:00,30.2,23.0,28.71,West,270,9.0,11.0,74,0.00,,,0.00,meteohub,2013-01-16 15:51:00,
2013-01-16 09:56:00,30.6,23.0,28.71,WSW,248,9.0,11.0,73,0.00,,,0.00,meteohub,2013-01-16 15:56:00,
2013-01-16 10:01:00,31.1,23.2,28.71,SW,225,7.0,11.0,72,0.00,,,0.00,meteohub,2013-01-16 16:01:00,
2013-01-16 10:06:00,31.3,23.4,28.71,West,270,8.0,11.0,72,0.00,,,0.00,meteohub,2013-01-16 16:06:00,
2013-01-16 10:12:00,31.3,22.6,28.70,SW,225,11.0,13.0,70,0.00,,,0.00,meteohub,2013-01-16 16:12:00,
2013-01-16 10:17:00,31.8,23.2,28.70,West,270,8.0,13.0,70,0.00,,,0.00,meteohub,2013-01-16 16:17:00,
2013-01-16 10:22:00,32.2,23.5,28.69,West,270,7.0,13.0,70,0.00,,,0.00,meteohub,2013-01-16 16:22:00,
2013-01-16 10:27:00,32.7,23.7,28.69,WSW,248,8.0,11.0,69,0.00,,,0.00,meteohub,2013-01-16 16:27:00,
2013-01-16 10:32:00,32.5,23.2,28.69,West,270,8.0,11.0,68,0.00,,,0.00,meteohub,2013-01-16 16:32:00,
2013-01-16 10:37:00,32.9,23.2,28.69,West,270,10.0,11.0,67,0.00,,,0.00,meteohub,2013-01-16 16:37:00,
2013-01-16 10:42:00,33.4,24.1,28.69,West,270,7.0,11.0,68,0.00,,,0.00,meteohub,2013-01-16 16:42:00,
2013-01-16 10:47:00,34.0,24.6,28.69,SW,225,8.0,11.0,68,0.00,,,0.00,meteohub,2013-01-16 16:47:00,
2013-01-16 10:52:00,34.5,24.3,28.70,SW,225,6.0,10.0,66,0.00,,,0.00,meteohub,2013-01-16 16:52:00,
2013-01-16 10:57:00,35.2,24.3,28.70,SW,225,7.0,8.0,64,0.00,,,0.00,meteohub,2013-01-16 16:57:00,
2013-01-16 11:02:00,35.4,23.7,28.70,SW,225,8.0,8.0,62,0.00,,,0.00,meteohub,2013-01-16 17:02:00,
2013-01-16 11:07:00,35.8,24.1,28.69,West,270,8.0,8.0,62,0.00,,,0.00,meteohub,2013-01-16 17:07:00,
2013-01-16 11:12:00,36.3,24.1,28.69,West,270,8.0,8.0,61,0.00,,,0.00,meteohub,2013-01-16 17:12:00,
2013-01-16 11:17:00,36.5,24.3,28.70,West,270,5.0,9.0,61,0.00,,,0.00,meteohub,2013-01-16 17:17:00,
2013-01-16 11:22:00,37.0,24.4,28.69,West,270,5.0,9.0,60,0.00,,,0.00,meteohub,2013-01-16 17:22:00,
2013-01-16 11:27:00,37.6,24.6,28.69,SW,225,4.0,9.0,59,0.00,,,0.00,meteohub,2013-01-16 17:27:00,
2013-01-16 11:32:00,38.1,24.6,28.69,West,270,6.0,9.0,58,0.00,,,0.00,meteohub,2013-01-16 17:32:00,
2013-01-16 11:37:00,38.8,24.4,28.69,SW,225,6.0,9.0,56,0.00,,,0.00,meteohub,2013-01-16 17:37:00,
2013-01-16 11:42:00,39.2,23.9,28.68,SW,225,8.0,10.0,54,0.00,,,0.00,meteohub,2013-01-16 17:42:00,
2013-01-16 11:47:00,39.4,23.7,28.68,SW,225,7.0,10.0,53,0.00,,,0.00,meteohub,2013-01-16 17:47:00,
2013-01-16 11:52:00,39.9,24.6,28.68,SW,225,7.0,10.0,54,0.00,,,0.00,meteohub,2013-01-16 17:52:00,
2013-01-16 11:57:00,41.0,24.8,28.67,West,270,5.0,10.0,52,0.00,,,0.00,meteohub,2013-01-16 17:57:00,
2013-01-16 12:02:00,41.2,23.5,28.67,SW,225,10.0,10.0,49,0.00,,,0.00,meteohub,2013-01-16 18:02:00,
2013-01-16 12:07:00,41.0,22.3,28.67,SW,225,8.0,10.0,47,0.00,,,0.00,meteohub,2013-01-16 18:07:00,
2013-01-16 12:12:00,41.5,22.8,28.67,SW,225,7.0,11.0,47,0.00,,,0.00,meteohub,2013-01-16 18:12:00,
2013-01-16 12:17:00,42.3,23.0,28.66,SW,225,6.0,11.0,46,0.00,,,0.00,meteohub,2013-01-16 18:17:00,
2013-01-16 12:22:00,42.3,22.5,28.67,West,270,10.0,11.0,45,0.00,,,0.00,meteohub,2013-01-16 18:22:00,
2013-01-16 12:27:00,42.8,21.9,28.67,West,270,11.0,11.0,43,0.00,,,0.00,meteohub,2013-01-16 18:27:00,
2013-01-16 12:32:00,42.8,22.5,28.66,SW,225,8.0,11.0,44,0.00,,,0.00,meteohub,2013-01-16 18:32:00,
2013-01-16 12:37:00,43.0,20.3,28.66,SW,225,9.0,11.0,40,0.00,,,0.00,meteohub,2013-01-16 18:37:00,
2013-01-16 12:42:00,43.3,20.1,28.66,SW,225,8.0,11.0,39,0.00,,,0.00,meteohub,2013-01-16 18:42:00,
2013-01-16 12:47:00,43.3,17.6,28.66,SW,225,9.0,10.0,35,0.00,,,0.00,meteohub,2013-01-16 18:47:00,
2013-01-16 12:52:00,44.1,18.9,28.66,NW,315,8.0,11.0,36,0.00,,,0.00,meteohub,2013-01-16 18:52:00,
2013-01-16 12:57:00,44.4,17.8,28.66,SW,225,10.0,11.0,34,0.00,,,0.00,meteohub,2013-01-16 18:57:00,
2013-01-16 13:02:00,44.4,17.1,28.65,West,270,8.0,12.0,33,0.00,,,0.00,meteohub,2013-01-16 19:02:00,
2013-01-16 13:07:00,44.6,18.0,28.65,SW,225,6.0,12.0,34,0.00,,,0.00,meteohub,2013-01-16 19:07:00,
2013-01-16 13:12:00,45.1,18.5,28.65,SW,225,8.0,12.0,34,0.00,,,0.00,meteohub,2013-01-16 19:12:00,
2013-01-16 13:17:00,45.9,19.0,28.65,West,270,10.0,11.0,34,0.00,,,0.00,meteohub,2013-01-16 19:17:00,
2013-01-16 13:22:00,46.0,19.9,28.64,West,270,13.0,13.0,35,0.00,,,0.00,meteohub,2013-01-16 19:22:00,
2013-01-16 13:27:00,45.9,21.0,28.64,West,270,9.0,13.0,37,0.00,,,0.00,meteohub,2013-01-16 19:27:00,
2013-01-16 13:32:00,45.9,20.5,28.64,SW,225,11.0,13.0,36,0.00,,,0.00,meteohub,2013-01-16 19:32:00,
2013-01-16 13:37:00,46.4,18.9,28.64,NW,315,10.0,14.0,33,0.00,,,0.00,meteohub,2013-01-16 19:37:00,
2013-01-16 13:42:00,46.9,19.9,28.64,West,270,8.0,14.0,34,0.00,,,0.00,meteohub,2013-01-16 19:42:00,
2013-01-16 13:47:00,46.9,19.4,28.64,NW,315,11.0,14.0,33,0.00,,,0.00,meteohub,2013-01-16 19:47:00,
2013-01-16 13:52:00,46.9,19.9,28.64,West,270,12.0,14.0,34,0.00,,,0.00,meteohub,2013-01-16 19:52:00,
2013-01-16 13:57:00,47.5,19.8,28.64,SW,225,12.0,14.0,33,0.00,,,0.00,meteohub,2013-01-16 19:57:00,
2013-01-16 14:02:00,47.7,20.7,28.63,WSW,248,11.0,14.0,34,0.00,,,0.00,meteohub,2013-01-16 20:02:00,
2013-01-16 14:07:00,48.4,21.4,28.63,West,270,7.0,14.0,34,0.00,,,0.00,meteohub,2013-01-16 20:07:00,
2013-01-16 14:12:00,48.4,21.4,28.63,West,270,10.0,14.0,34,0.00,,,0.00,meteohub,2013-01-16 20:12:00,
2013-01-16 14:17:00,49.5,22.3,28.63,West,270,6.0,15.0,34,0.00,,,0.00,meteohub,2013-01-16 20:17:00,
2013-01-16 14:22:00,49.3,21.4,28.63,NNW,338,10.0,15.0,33,0.00,,,0.00,meteohub,2013-01-16 20:22:00,
2013-01-16 14:27:00,49.1,21.2,28.62,West,270,11.0,11.0,33,0.00,,,0.00,meteohub,2013-01-16 20:27:00,
2013-01-16 14:32:00,49.6,21.0,28.62,WNW,293,7.0,13.0,32,0.00,,,0.00,meteohub,2013-01-16 20:32:00,
2013-01-16 14:37:00,50.4,20.8,28.62,SW,225,8.0,13.0,31,0.00,,,0.00,meteohub,2013-01-16 20:37:00,
2013-01-16 14:42:00,50.4,22.3,28.62,West,270,13.0,13.0,33,0.00,,,0.00,meteohub,2013-01-16 20:42:00,
2013-01-16 14:47:00,50.9,22.1,28.62,NW,315,6.0,13.0,32,0.00,,,0.00,meteohub,2013-01-16 20:47:00,
2013-01-16 14:52:00,51.4,24.1,28.62,West,270,11.0,13.0,34,0.00,,,0.00,meteohub,2013-01-16 20:52:00,
2013-01-16 14:57:00,51.4,26.1,28.62,North,0,9.0,17.0,37,0.00,,,0.00,meteohub,2013-01-16 20:57:00,
2013-01-16 15:02:00,52.0,27.1,28.62,NW,315,13.0,17.0,38,0.00,,,0.00,meteohub,2013-01-16 21:02:00,
2013-01-16 15:07:00,52.2,27.9,28.62,NW,315,9.0,17.0,39,0.00,,,0.00,meteohub,2013-01-16 21:07:00,
2013-01-16 15:12:00,52.0,27.9,28.62,NW,315,9.0,13.0,39,0.00,,,0.00,meteohub,2013-01-16 21:12:00,
2013-01-16 15:17:00,51.6,28.0,28.62,West,270,8.0,13.0,40,0.00,,,0.00,meteohub,2013-01-16 21:17:00,
2013-01-16 15:22:00,52.0,27.9,28.62,NW,315,8.0,11.0,39,0.00,,,0.00,meteohub,2013-01-16 21:22:00,
2013-01-16 15:27:00,52.5,28.9,28.63,NW,315,5.0,11.0,40,0.00,,,0.00,meteohub,2013-01-16 21:27:00,
2013-01-16 15:32:00,52.7,28.4,28.62,West,270,9.0,10.0,39,0.00,,,0.00,meteohub,2013-01-16 21:32:00,
2013-01-16 15:37:00,52.2,27.9,28.62,NW,315,8.0,10.0,39,0.00,,,0.00,meteohub,2013-01-16 21:37:00,
2013-01-16 15:42:00,52.0,28.4,28.62,West,270,6.0,11.0,40,0.00,,,0.00,meteohub,2013-01-16 21:42:00,
2013-01-16 15:47:00,52.7,28.4,28.62,NW,315,5.0,11.0,39,0.00,,,0.00,meteohub,2013-01-16 21:47:00,
2013-01-16 15:52:00,52.9,28.6,28.62,NW,315,7.0,9.0,39,0.00,,,0.00,meteohub,2013-01-16 21:52:00,
2013-01-16 15:57:00,53.1,28.8,28.62,NW,315,10.0,10.0,39,0.00,,,0.00,meteohub,2013-01-16 21:57:00,
2013-01-16 16:02:00,53.6,28.6,28.62,NW,315,8.0,10.0,38,0.00,,,0.00,meteohub,2013-01-16 22:02:00,
2013-01-16 16:07:00,53.8,29.5,28.62,NW,315,6.0,10.0,39,0.00,,,0.00,meteohub,2013-01-16 22:07:00,
2013-01-16 16:12:00,53.4,28.4,28.63,NW,315,8.0,11.0,38,0.00,,,0.00,meteohub,2013-01-16 22:12:00,
2013-01-16 16:17:00,53.4,28.4,28.62,NW,315,9.0,11.0,38,0.00,,,0.00,meteohub,2013-01-16 22:17:00,
2013-01-16 16:22:00,53.6,28.6,28.62,NW,315,8.0,11.0,38,0.00,,,0.00,meteohub,2013-01-16 22:22:00,
2013-01-16 16:27:00,54.1,29.1,28.63,NW,315,5.0,11.0,38,0.00,,,0.00,meteohub,2013-01-16 22:27:00,
2013-01-16 16:32:00,54.0,28.9,28.63,WNW,293,12.0,12.0,38,0.00,,,0.00,meteohub,2013-01-16 22:32:00,
2013-01-16 16:37:00,53.8,29.5,28.63,NW,315,6.0,12.0,39,0.00,,,0.00,meteohub,2013-01-16 22:37:00,
2013-01-16 16:42:00,53.6,29.3,28.63,NW,315,8.0,12.0,39,0.00,,,0.00,meteohub,2013-01-16 22:42:00,
2013-01-16 16:47:00,53.8,29.5,28.63,WNW,293,8.0,13.0,39,0.00,,,0.00,meteohub,2013-01-16 22:47:00,
2013-01-16 16:52:00,53.8,29.5,28.64,North,0,7.0,13.0,39,0.00,,,0.00,meteohub,2013-01-16 22:52:00,
2013-01-16 16:57:00,54.0,29.5,28.64,NW,315,5.0,9.0,39,0.00,,,0.00,meteohub,2013-01-16 22:57:00,
2013-01-16 17:02:00,53.8,30.0,28.64,West,270,3.0,9.0,40,0.00,,,0.00,meteohub,2013-01-16 23:02:00,
2013-01-16 17:07:00,53.4,29.7,28.64,NW,315,5.0,9.0,40,0.00,,,0.00,meteohub,2013-01-16 23:07:00,
2013-01-16 17:12:00,53.6,29.8,28.64,NW,315,7.0,7.0,40,0.00,,,0.00,meteohub,2013-01-16 23:12:00,
2013-01-16 17:17:00,53.2,30.2,28.64,NW,315,4.0,7.0,41,0.00,,,0.00,meteohub,2013-01-16 23:17:00,
2013-01-16 17:22:00,52.9,30.4,28.64,WNW,293,4.0,7.0,42,0.00,,,0.00,meteohub,2013-01-16 23:22:00,
2013-01-16 17:27:00,52.5,30.0,28.64,NW,315,4.0,7.0,42,0.00,,,0.00,meteohub,2013-01-16 23:27:00,
2013-01-16 17:32:00,52.3,29.8,28.65,NW,315,4.0,5.0,42,0.00,,,0.00,meteohub,2013-01-16 23:32:00,
2013-01-16 17:37:00,51.8,30.0,28.65,NW,315,3.0,5.0,43,0.00,,,0.00,meteohub,2013-01-16 23:37:00,
2013-01-16 17:42:00,51.3,30.0,28.66,NW,315,2.0,4.0,44,0.00,,,0.00,meteohub,2013-01-16 23:42:00,
2013-01-16 17:47:00,50.9,29.8,28.66,North,0,2.0,4.0,44,0.00,,,0.00,meteohub,2013-01-16 23:47:00,
2013-01-16 17:52:00,50.5,30.0,28.66,NW,315,2.0,3.0,45,0.00,,,0.00,meteohub,2013-01-16 23:52:00,
2013-01-16 17:57:00,50.2,29.7,28.66,NW,315,2.0,3.0,45,0.00,,,0.00,meteohub,2013-01-16 23:57:00,
2013-01-16 18:02:00,50.0,29.5,28.66,NW,315,2.0,2.0,45,0.00,,,0.00,meteohub,2013-01-17 00:02:00,
2013-01-16 18:07:00,49.3,29.3,28.66,NW,315,1.0,3.0,46,0.00,,,0.00,meteohub,2013-01-17 00:07:00,
2013-01-16 18:12:00,48.9,29.7,28.67,NW,315,2.0,3.0,47,0.00,,,0.00,meteohub,2013-01-17 00:12:00,
2013-01-16 18:17:00,48.7,29.5,28.67,NW,315,2.0,3.0,47,0.00,,,0.00,meteohub,2013-01-17 00:17:00,
2013-01-16 18:22:00,48.6,29.8,28.67,NW,315,2.0,2.0,48,0.00,,,0.00,meteohub,2013-01-17 00:22:00,
2013-01-16 18:27:00,48.0,29.8,28.67,NW,315,2.0,2.0,49,0.00,,,0.00,meteohub,2013-01-17 00:27:00,
2013-01-16 18:32:00,47.5,29.3,28.67,NW,315,2.0,2.0,49,0.00,,,0.00,meteohub,2013-01-17 00:32:00,
2013-01-16 18:37:00,47.5,29.8,28.67,NW,315,2.0,2.0,50,0.00,,,0.00,meteohub,2013-01-17 00:37:00,
2013-01-16 18:42:00,46.9,29.8,28.67,West,270,0.0,2.0,51,0.00,,,0.00,meteohub,2013-01-17 00:42:00,
2013-01-16 18:47:00,46.6,29.8,28.68,NW,315,2.0,2.0,52,0.00,,,0.00,meteohub,2013-01-17 00:47:00,
2013-01-16 18:52:00,45.9,30.2,28.68,NW,315,2.0,2.0,54,0.00,,,0.00,meteohub,2013-01-17 00:52:00,
2013-01-16 18:57:00,45.9,30.6,28.68,NW,315,2.0,2.0,55,0.00,,,0.00,meteohub,2013-01-17 00:57:00,
2013-01-16 19:02:00,45.5,30.7,28.68,NW,315,2.0,2.0,56,0.00,,,0.00,meteohub,2013-01-17 01:02:00,
2013-01-16 19:07:00,45.5,30.7,28.68,North,0,2.0,3.0,56,0.00,,,0.00,meteohub,2013-01-17 01:07:00,
2013-01-16 19:12:00,45.5,30.7,28.68,NW,315,2.0,3.0,56,0.00,,,0.00,meteohub,2013-01-17 01:12:00,
2013-01-16 19:17:00,45.0,30.6,28.69,NW,315,2.0,3.0,57,0.00,,,0.00,meteohub,2013-01-17 01:17:00,
2013-01-16 19:22:00,45.0,30.6,28.68,North,0,2.0,2.0,57,0.00,,,0.00,meteohub,2013-01-17 01:22:00,
2013-01-16 19:27:00,44.6,30.4,28.69,NW,315,2.0,2.0,57,0.00,,,0.00,meteohub,2013-01-17 01:27:00,
2013-01-16 19:32:00,44.8,30.6,28.69,NW,315,0.0,2.0,57,0.00,,,0.00,meteohub,2013-01-17 01:32:00,
2013-01-16 19:37:00,44.4,30.2,28.69,West,270,2.0,2.0,57,0.00,,,0.00,meteohub,2013-01-17 01:37:00,
2013-01-16 19:42:00,44.1,29.8,28.69,NW,315,1.0,3.0,57,0.00,,,0.00,meteohub,2013-01-17 01:42:00,
2013-01-16 19:47:00,43.9,30.9,28.69,NW,315,2.0,3.0,60,0.00,,,0.00,meteohub,2013-01-17 01:47:00,
2013-01-16 19:52:00,44.1,31.1,28.69,NNW,338,2.0,3.0,60,0.00,,,0.00,meteohub,2013-01-17 01:52:00,
2013-01-16 19:57:00,43.9,30.9,28.69,NW,315,2.0,2.0,60,0.00,,,0.00,meteohub,2013-01-17 01:57:00,
2013-01-16 20:02:00,43.7,30.7,28.69,NW,315,2.0,2.0,60,0.00,,,0.00,meteohub,2013-01-17 02:02:00,
2013-01-16 20:07:00,43.3,30.4,28.70,West,270,2.0,2.0,60,0.00,,,0.00,meteohub,2013-01-17 02:07:00,
2013-01-16 20:12:00,42.6,30.2,28.70,NW,315,2.0,2.0,61,0.00,,,0.00,meteohub,2013-01-17 02:12:00,
2013-01-16 20:17:00,42.4,30.0,28.70,West,270,2.0,2.0,61,0.00,,,0.00,meteohub,2013-01-17 02:17:00,
2013-01-16 20:22:00,42.3,30.2,28.70,West,270,0.0,2.0,62,0.00,,,0.00,meteohub,2013-01-17 02:22:00,
2013-01-16 20:27:00,41.9,29.8,28.70,NW,315,0.0,2.0,62,0.00,,,0.00,meteohub,2013-01-17 02:27:00,
2013-01-16 20:32:00,41.7,30.0,28.70,West,270,1.0,2.0,63,0.00,,,0.00,meteohub,2013-01-17 02:32:00,
2013-01-16 20:37:00,41.4,30.0,28.70,North,0,0.0,2.0,64,0.00,,,0.00,meteohub,2013-01-17 02:37:00,
2013-01-16 20:42:00,41.2,30.0,28.71,NW,315,0.0,2.0,64,0.00,,,0.00,meteohub,2013-01-17 02:42:00,
2013-01-16 20:47:00,41.0,29.8,28.71,West,270,0.0,1.0,64,0.00,,,0.00,meteohub,2013-01-17 02:47:00,
2013-01-16 20:52:00,41.0,30.2,28.71,West,270,0.0,0.0,65,0.00,,,0.00,meteohub,2013-01-17 02:52:00,
2013-01-16 20:57:00,40.5,29.7,28.71,West,270,0.0,0.0,65,0.00,,,0.00,meteohub,2013-01-17 02:57:00,
2013-01-16 21:02:00,40.1,29.3,28.71,West,270,2.0,3.0,65,0.00,,,0.00,meteohub,2013-01-17 03:02:00,
2013-01-16 21:07:00,39.6,29.1,28.71,West,270,2.0,3.0,66,0.00,,,0.00,meteohub,2013-01-17 03:07:00,
2013-01-16 21:12:00,39.4,29.3,28.71,NW,315,0.0,3.0,67,0.00,,,0.00,meteohub,2013-01-17 03:12:00,
2013-01-16 21:17:00,38.8,28.8,28.71,SW,225,0.0,3.0,67,0.00,,,0.00,meteohub,2013-01-17 03:17:00,
2013-01-16 21:22:00,38.7,28.9,28.72,West,270,2.0,3.0,68,0.00,,,0.00,meteohub,2013-01-17 03:22:00,
2013-01-16 21:27:00,38.7,28.9,28.72,NW,315,2.0,2.0,68,0.00,,,0.00,meteohub,2013-01-17 03:27:00,
2013-01-16 21:32:00,38.7,28.9,28.72,West,270,2.0,2.0,68,0.00,,,0.00,meteohub,2013-01-17 03:32:00,
2013-01-16 21:37:00,38.3,28.8,28.72,West,270,1.0,2.0,68,0.00,,,0.00,meteohub,2013-01-17 03:37:00,
2013-01-16 21:42:00,38.1,28.9,28.72,NW,315,2.0,2.0,69,0.00,,,0.00,meteohub,2013-01-17 03:42:00,
2013-01-16 21:47:00,37.9,28.8,28.72,West,270,2.0,2.0,69,0.00,,,0.00,meteohub,2013-01-17 03:47:00,
2013-01-16 21:52:00,37.8,28.6,28.72,West,270,2.0,2.0,69,0.00,,,0.00,meteohub,2013-01-17 03:52:00,
2013-01-16 21:57:00,37.4,28.6,28.72,NW,315,1.0,2.0,70,0.00,,,0.00,meteohub,2013-01-17 03:57:00,
2013-01-16 22:02:00,37.2,28.8,28.72,NW,315,2.0,2.0,71,0.00,,,0.00,meteohub,2013-01-17 04:02:00,
2013-01-16 22:07:00,37.0,28.6,28.72,West,270,2.0,2.0,71,0.00,,,0.00,meteohub,2013-01-17 04:07:00,
2013-01-16 22:12:00,36.9,28.8,28.73,West,270,2.0,2.0,72,0.00,,,0.00,meteohub,2013-01-17 04:12:00,
2013-01-16 22:17:00,36.7,28.8,28.73,NW,315,2.0,2.0,73,0.00,,,0.00,meteohub,2013-01-17 04:17:00,
2013-01-16 22:22:00,36.3,28.8,28.73,West,270,2.0,2.0,74,0.00,,,0.00,meteohub,2013-01-17 04:22:00,
2013-01-16 22:27:00,36.0,28.8,28.73,West,270,2.0,2.0,75,0.00,,,0.00,meteohub,2013-01-17 04:27:00,
2013-01-16 22:32:00,35.2,28.4,28.73,West,270,2.0,2.0,76,0.00,,,0.00,meteohub,2013-01-17 04:32:00,
2013-01-16 22:37:00,34.7,28.6,28.74,WNW,293,3.0,3.0,78,0.00,,,0.00,meteohub,2013-01-17 04:37:00,
2013-01-16 22:42:00,34.2,28.0,28.74,West,270,3.0,3.0,78,0.00,,,0.00,meteohub,2013-01-17 04:42:00,
2013-01-16 22:47:00,34.2,28.0,28.74,West,270,2.0,3.0,78,0.00,,,0.00,meteohub,2013-01-17 04:47:00,
2013-01-16 22:53:00,33.4,27.7,28.74,NW,315,4.0,4.0,79,0.00,,,0.00,meteohub,2013-01-17 04:53:00,
2013-01-16 22:58:00,33.3,27.7,28.74,West,270,2.0,3.0,80,0.00,,,0.00,meteohub,2013-01-17 04:58:00,
2013-01-16 23:02:00,33.1,27.5,28.74,West,270,3.0,4.0,80,0.00,,,0.00,meteohub,2013-01-17 05:02:00,
2013-01-16 23:03:00,32.9,27.7,28.74,West,270,3.0,4.0,81,0.00,,,0.00,meteohub,2013-01-17 05:03:00,
2013-01-16 23:04:00,32.9,27.7,28.74,West,270,3.0,4.0,81,0.00,,,0.00,meteohub,2013-01-17 05:04:00,
2013-01-16 23:09:00,32.9,28.0,28.74,NW,315,4.0,4.0,82,0.00,,,0.00,meteohub,2013-01-17 05:09:00,
2013-01-16 23:14:00,33.6,28.9,28.74,NW,315,3.0,3.0,83,0.00,,,0.00,meteohub,2013-01-17 05:14:00,
2013-01-16 23:19:00,34.3,29.5,28.75,NW,315,3.0,4.0,82,0.00,,,0.00,meteohub,2013-01-17 05:19:00,
2013-01-16 23:24:00,34.7,29.5,28.75,NW,315,4.0,4.0,81,0.00,,,0.00,meteohub,2013-01-17 05:24:00,
2013-01-16 23:29:00,35.6,30.0,28.74,NW,315,5.0,5.0,80,0.00,,,0.00,meteohub,2013-01-17 05:29:00,
2013-01-16 23:34:00,36.1,30.0,28.75,West,270,3.0,4.0,78,0.00,,,0.00,meteohub,2013-01-17 05:34:00,
2013-01-16 23:39:00,36.7,30.2,28.75,NW,315,4.0,5.0,77,0.00,,,0.00,meteohub,2013-01-17 05:39:00,
2013-01-16 23:44:00,36.3,29.8,28.76,West,270,4.0,6.0,77,0.00,,,0.00,meteohub,2013-01-17 05:44:00,
2013-01-16 23:50:00,35.8,29.3,28.76,NW,315,3.0,6.0,77,0.00,,,0.00,meteohub,2013-01-17 05:50:00,
2013-01-16 23:55:00,35.1,28.9,28.76,NW,315,4.0,6.0,78,0.00,,,0.00,meteohub,2013-01-17 05:55:00,